SCP
1 1 1 1 1 1 1 1 1 1 1 1 1 1 0 0 1 1 1 2 2 2 2 1 1 1 2 3 3 3 3 3 2 2 2 2 2 2 2 2 2 2 2
1 1 1 2 1 1 1 1 1 2 2 1 1 1 1 1 1 1 1 2 2 2 2 2 1 1 2 3 3 3 3 3 3 3 2 2 2 2 2 2 2 2 2
2 2 2 2 2 2 2 2 2 2 2 2 1 1 1 1 1 1 1 1 2 2 2 2 2 2 2 3 3 3 3 3 3 3 3 2 2 2 2 2 2 2 2
3 2 2 3 3 3 3 3 3 3 3 2 2 2 2 2 2 1 1 1 2 2 2 2 2 2 2 2 2 3 3 4 3 3 3 3 2 2 2 2 2 2 2
3 4 3 3 4 4 4 4 3 3 3 3 2 2 2 2 2 1 1 1 1 2 2 2 2 1 2 2 2 3 4 3 3 3 3 3 3 2 2 2 1 1 2
4 4 4 4 5 5 5 4 4 4 3 3 3 2 2 2 1 1 1 1 1 1 2 2 1 1 1 1 2 3 3 3 2 3 3 3 3 2 2 2 2 2 2
4 4 4 5 5 5 5 5 4 4 3 3 3 3 2 1 1 1 1 1 1 1 1 1 1 1 1 1 1 1 2 2 2 2 2 2 2 2 2 2 2 2 2
3 4 4 4 4 4 4 4 4 3 3 3 3 3 2 1 1 0 0 0 1 1 1 1 1 1 1 1 0 0 1 1 1 1 1 1 1 1 1 2 2 2 2
3 3 3 4 4 4 4 3 3 3 3 2 2 2 1 1 1 0 0 0 0 0 0 0 0 0 0 0 0 0 0 0 0 0 1 1 1 1 1 1 1 1 2
3 3 3 3 3 3 3 2 1 1 1 1 1 1 1 1 1 0 0 0 0 0 0 0 0 0 0 0 0 0 0 0 0 0 0 0 0 0 0 0 1 1 1
3 2 2 2 1 1 1 1 0 0 0 1 1 1 0 0 0 0 0 0 0 0 0 0 0 0 0 0 0 0 0 0 0 0 0 0 0 0 0 0 0 0 1
2 2 1 1 0 0 0 0 0 0 0 0 0 0 0 0 0 0 0 0 0 0 0 0 0 0 0 0 0 0 0 0 0 0 0 0 0 0 0 0 0 0 0
1 0 0 0 0 0 0 0 0 0 0 0 0 0 0 0 0 0 0 0 0 0 0 0 0 0 0 0 0 0 0 0 0 0 0 0 0 0 0 0 0 0 0
0 0 0 0 0 0 0 0 0 0 0 0 0 0 0 0 0 0 0 0 0 0 0 0 0 0 0 0 0 0 0 0 0 0 0 0 0 0 0 0 0 0 0
0 0 0 0 0 0 0 0 0 0 0 0 0 0 0 0 0 0 0 0 0 0 0 0 0 0 0 0 0 0 0 0 0 0 0 0 0 0 0 0 0 0 0
0 0 0 0 0 0 0 0 0 0 0 0 0 0 0 0 0 0 0 0 0 0 0 0 0 0 0 0 0 0 0 0 0 0 0 0 0 0 0 0 0 0 0
0 0 0 0 0 0 0 0 0 0 0 0 0 0 0 0 0 0 0 0 0 0 0 0 0 0 0 0 0 0 0 0 0 0 0 0 0 0 0 0 0 0 0
0 0 0 0 0 0 0 0 0 0 0 0 0 0 0 0 0 0 0 0 0 0 0 0 0 0 0 0 0 0 0 0 0 0 0 0 0 0 0 0 0 0 0
0 0 0 0 0 0 0 0 0 0 0 0 0 0 0 0 0 0 0 0 0 0 0 0 0 0 0 0 0 0 0 0 0 0 0 0 0 0 0 0 0 0 0
0 0 0 0 0 0 0 0 0 0 0 0 0 0 0 0 0 0 0 0 0 0 0 0 0 0 0 0 0 0 0 0 0 0 0 0 0 0 0 0 0 0 0
0 0 0 0 0 0 0 0 0 0 0 0 0 0 0 0 0 0 0 0 0 0 0 0 0 0 0 0 0 0 0 0 0 0 0 0 0 0 0 0 0 0 0
0 0 0 0 0 0 0 0 0 0 0 0 0 0 0 0 0 0 0 0 0 0 0 0 0 0 0 0 0 0 0 0 0 0 0 0 0 0 0 0 0 0 0
0 0 0 0 0 0 0 0 0 0 0 0 0 0 0 0 0 0 0 0 0 0 0 0 0 0 0 0 0 0 0 0 0 0 0 0 0 0 0 0 0 0 0
0 0 0 0 0 0 0 0 0 0 0 0 0 0 0 0 0 0 0 0 0 0 0 0 0 0 0 0 0 0 0 0 0 0 0 0 0 0 0 0 0 0 0
0 0 0 0 0 0 0 0 0 0 0 0 0 0 0 0 0 0 0 0 0 0 0 0 0 0 0 0 0 0 0 0 0 0 0 0 0 0 0 0 0 0 0
0 0 0 0 0 0 0 0 0 0 0 0 0 0 0 0 0 0 0 0 0 0 0 0 0 0 0 0 0 0 0 0 0 0 0 0 0 0 0 0 0 0 0
Wind_Speed
5 4 3 3 4 3 4 4 4 3 4 5 5 5 5 4 5 4 4 9 7 7 8 8 9 9 9 9 9 9 9 9 9 9 9 8 8 8 8 8 7 7 7
3 4 4 3 3 3 3 3 3 3 4 3 4 3 5 4 3 4 3 7 8 6 5 6 8 8 8 9 8 8 8 8 9 8 8 8 8 7 7 7 7 7 7
4 4 4 4 3 2 3 3 3 3 3 3 4 3 3 3 2 3 4 3 5 7 5 4 4 5 6 7 8 8 8 8 8 8 8 8 8 7 7 7 7 7 6
5 4 4 3 2 2 2 2 3 3 3 3 3 3 2 2 2 3 4 3 3 3 6 5 3 3 4 5 7 7 8 8 8 8 8 8 8 7 7 7 7 7 6
5 5 3 2 2 2 2 2 1 3 3 3 3 2 2 2 2 3 3 4 2 3 2 6 5 2 1 3 4 6 7 7 7 8 8 7 7 7 7 7 7 7 7
3 3 2 1 1 2 1 1 1 1 2 2 3 2 2 2 2 2 3 2 2 3 3 1 3 4 3 1 2 3 4 5 6 7 7 8 8 8 8 8 7 7 8
2 2 1 1 1 1 2 2 1 2 1 1 3 3 3 2 1 1 2 2 2 2 2 2 2 2 1 4 4 3 3 4 4 6 7 7 7 8 9 10 10 9 9
2 2 2 1 1 1 1 2 2 2 1 1 2 3 3 3 3 1 1 1 2 2 1 1 2 2 3 2 4 4 5 6 6 6 7 7 6 7 9 10 11 12 11
5 5 4 2 2 1 0 0 1 2 1 1 1 3 3 3 1 3 1 1 1 2 1 2 2 3 3 3 2 5 7 7 7 7 7 7 7 8 9 11 12 13 13
9 8 7 6 5 4 3 3 2 2 1 1 1 1 2 3 3 1 2 1 1 1 2 2 2 2 2 2 3 6 8 8 8 8 8 8 8 9 10 11 13 13 14
10 10 9 8 7 6 7 7 6 5 3 3 2 1 1 1 2 3 2 1 1 1 1 2 1 1 1 2 2 6 8 8 8 9 9 9 9 10 11 12 12 14 15
8 11 10 9 8 7 7 7 7 8 6 6 4 4 3 2 3 3 3 3 3 2 2 2 3 3 2 3 2 6 7 8 8 9 10 11 11 12 13 13 14 15 16
8 9 9 9 8 7 7 7 8 8 8 7 5 4 4 3 3 4 4 4 5 4 4 5 4 3 4 4 3 7 8 6 8 10 11 12 13 13 14 15 16 16 17
8 9 9 9 9 9 8 7 7 7 6 6 6 5 3 4 4 4 5 6 7 6 5 4 3 4 4 5 4 6 9 5 7 10 12 13 14 14 15 15 16 16 17
8 10 10 10 10 9 9 7 7 7 6 6 5 5 5 4 4 5 5 5 7 8 7 4 4 4 5 6 5 9 11 7 9 13 14 14 14 15 16 16 16 17 17
9 10 10 10 9 9 8 7 7 7 6 6 5 5 6 5 5 5 5 5 6 8 9 7 6 7 7 9 8 10 11 10 15 16 15 13 14 16 17 17 18 18 18
10 10 10 9 9 9 8 7 7 7 7 6 6 6 6 6 6 6 5 6 6 6 9 8 7 7 9 11 10 10 11 11 10 10 11 12 14 16 17 17 18 18 18
10 9 9 9 9 9 8 8 8 7 7 7 7 7 7 6 7 7 6 7 6 6 8 10 9 9 10 11 10 11 11 10 10 7 9 12 15 16 16 16 16 16 16
9 9 9 9 8 8 7 7 7 7 7 7 7 7 7 7 7 7 7 7 6 6 7 9 10 8 9 9 10 10 11 9 11 9 9 14 16 15 15 15 15 15 14
8 8 8 7 7 7 8 8 7 7 7 7 7 7 7 7 8 9 7 7 7 8 8 8 9 9 9 9 8 9 9 8 9 10 10 9 9 13 16 17 17 16 14
7 7 6 6 6 6 9 10 9 8 8 8 7 7 7 6 7 8 9 10 10 9 9 8 9 9 9 9 9 8 9 10 10 8 8 8 8 8 9 11 14 12 10
6 6 6 6 7 8 7 8 11 10 8 8 8 8 7 4 5 7 8 10 11 11 11 10 9 10 11 10 9 8 9 9 8 7 9 10 8 8 8 7 0 2 6
5 5 6 6 7 8 6 7 10 11 9 8 8 8 7 6 7 9 9 11 11 11 12 10 11 11 11 11 11 11 9 9 10 9 9 9 8 7 8 4 2 3 7
5 5 5 6 6 7 6 8 13 10 7 7 7 7 8 8 8 10 13 13 11 8 7 8 9 10 10 10 10 10 10 10 10 8 6 8 8 8 8 5 3 5 8
4 4 5 6 6 5 7 8 13 9 6 8 7 7 7 8 8 10 12 12 11 9 5 7 10 12 13 14 12 9 8 7 8 7 5 6 7 9 9 6 2 6 8
4 4 5 5 6 6 5 6 12 8 8 8 7 6 2 6 10 11 11 11 11 10 10 8 8 9 10 10 12 9 7 7 7 6 5 6 6 6 6 6 7 6 5
Wind_Direction
206 200 215 226 236 226 214 239 250 240 252 240 246 253 263 260 264 262 152 153 183 203 208 208 207 207 207 208 210 210 211 212 214 215 215 217 218 217 216 216 215 216 218
204 215 217 215 240 243 255 258 253 247 250 262 259 263 269 268 251 266 251 158 169 183 196 204 207 208 210 211 212 211 215 216 216 214 214 215 216 216 216 216 218 219 219
202 226 234 222 232 245 246 256 258 255 250 248 250 255 262 282 282 260 265 241 181 166 165 178 194 204 213 212 214 216 218 220 219 219 220 219 218 217 218 221 222 222 221
209 227 241 234 229 246 251 252 256 252 252 259 260 261 264 261 268 260 255 250 247 197 160 139 156 179 208 219 225 226 226 225 223 223 225 224 222 219 216 218 220 222 220
209 217 233 237 227 232 242 254 250 269 267 276 267 266 281 285 295 280 282 280 282 270 233 138 147 142 202 240 246 245 239 232 228 225 224 225 222 219 218 221 221 218 218
203 212 215 195 224 226 217 222 218 290 308 296 282 278 282 294 292 299 290 288 298 289 289 284 213 164 145 171 278 271 259 250 243 238 236 234 227 220 216 218 221 221 224
153 157 177 155 197 208 194 180 178 192 245 287 264 249 239 251 281 292 296 295 289 306 304 307 306 313 174 133 75 14 332 303 280 262 255 247 240 233 228 225 227 228 228
85 110 96 91 116 170 179 174 188 209 188 259 269 266 248 210 201 209 255 260 307 285 278 342 357 347 332 329 77 43 7 343 319 299 286 275 262 249 243 240 237 233 231
55 60 73 66 65 58 86 40 268 242 215 173 318 285 278 264 205 176 168 40 340 336 331 13 20 15 5 353 3 50 19 357 339 325 313 305 293 279 266 257 251 247 241
53 52 58 58 53 49 45 38 28 347 321 192 114 18 2 346 302 256 191 153 68 335 355 342 357 26 16 9 39 41 22 3 349 335 325 320 314 303 293 282 270 263 256
56 57 58 59 57 55 53 51 47 39 38 32 35 26 12 348 314 292 276 247 248 275 330 310 319 312 340 326 312 35 8 353 347 339 329 319 313 308 301 296 289 281 272
67 65 67 65 63 60 59 58 56 54 48 47 38 28 8 353 345 322 302 285 280 272 274 284 265 267 281 287 343 26 337 329 332 328 321 314 305 298 294 293 291 288 283
72 66 67 66 66 65 64 62 62 55 50 48 40 29 19 9 347 329 310 304 295 279 258 250 253 275 285 304 323 14 309 307 313 313 310 306 302 298 293 290 288 287 287
75 73 70 68 66 63 62 59 60 56 50 47 41 27 2 8 346 334 323 313 299 284 261 268 294 289 310 303 2 313 291 276 293 300 300 297 294 293 291 290 288 287 286
82 76 73 69 63 59 56 55 57 47 39 31 25 19 358 356 336 331 320 314 308 303 299 295 285 301 301 304 320 298 299 302 299 289 286 286 288 287 286 285 284 283 282
84 82 76 72 67 61 53 45 53 45 35 33 17 10 349 345 335 316 311 307 302 302 301 307 306 308 321 307 298 296 291 285 262 259 263 273 281 284 284 283 282 281 281
82 78 75 72 66 59 53 47 42 37 27 21 7 2 352 341 329 320 313 307 305 304 299 303 306 306 303 297 302 300 294 289 282 242 240 262 275 278 279 280 280 280 280
80 78 75 70 65 59 50 42 33 27 19 10 1 349 341 334 327 312 318 312 309 307 296 302 304 303 301 298 297 297 294 294 297 273 232 252 265 270 273 274 274 275 276
78 74 70 66 59 53 47 38 27 19 10 2 352 343 337 332 325 329 316 311 309 304 298 295 297 301 297 300 302 295 297 299 295 292 250 242 249 254 258 261 264 267 267
78 72 66 61 52 43 34 22 16 9 359 353 347 338 335 335 333 328 313 314 313 309 301 297 299 301 303 306 306 305 305 306 307 306 302 291 263 244 248 251 254 257 259
72 65 58 53 42 43 30 7 353 357 351 344 342 337 340 340 333 324 321 325 318 312 308 306 304 305 309 316 314 314 310 309 305 302 304 299 292 285 278 255 245 249 256
61 53 45 36 32 43 39 7 343 339 338 340 340 336 327 304 333 292 285 293 297 299 309 307 303 303 307 310 311 308 309 307 307 312 309 304 303 301 299 296 260 234 268
52 42 33 25 28 56 33 1 343 320 328 339 334 332 330 347 321 332 317 289 275 258 262 283 292 297 304 308 311 310 308 306 302 304 303 300 304 306 305 314 147 261 274
39 33 24 17 16 56 36 358 333 308 328 333 332 330 330 330 357 343 320 310 308 305 285 275 290 297 300 307 306 301 300 298 294 293 300 300 315 320 315 310 197 233 263
26 20 28 16 11 52 45 358 333 321 338 339 335 338 333 332 14 335 310 306 313 319 295 257 268 275 279 278 280 293 301 302 311 321 336 315 321 324 315 314 293 229 260
11 6 26 16 12 20 53 1 335 330 345 339 337 339 7 343 332 317 308 309 317 326 324 312 281 263 261 255 242 261 296 308 317 318 342 325 319 325 316 321 330 327 309